This demonstration page uses our WeatherBlox Daily Observations layout. Learn more.

Left ArrowRight Arrow

34.74481, -87.66753

Hourly Observations for June 29, 2018

Temp ( °F °C ) Dew Point ( °F °C ) Humidity (%) Winds ( mph kmh ) Pressure ( in mb ) Visibility ( mi km ) Precip ( " mm )
12:10 am 00:10 Mostly Cloudy with Thunderstorms 74 23.3 69 20.6 85 85 Calm 30.03 1017 10 16 0.00 0.00
12:53 am 00:53 Mostly Cloudy 74 23.3 69 20.6 85 85 WNW 12 19 30.03 1017 10 16 0.00 0.00
1:53 am 01:53 Clear 73 22.8 68 20 84 84 NW 12 19 30.02 1017 10 16 0.00 0.00
2:53 am 02:53 Clear 71 21.7 68 20 90 90 W 5 7 30.02 1017 10 16 0.00 0.00
3:53 am 03:53 Clear 71 21.7 68 20 90 90 S 6 9 29.98 1015 10 16 0.00 0.00
4:53 am 04:53 Clear 70 21.1 68 20 93 93 S 5 7 29.97 1015 10 16 0.00 0.00
5:53 am 05:53 Sunny 70 21.1 68 20 93 93 NNW 3 6 29.98 1015 10 16 0.00 0.00
6:53 am 06:53 Sunny 71 21.7 68 20 90 90 E 5 7 29.98 1015 10 16 0.00 0.00
7:53 am 07:53 Sunny 75 23.9 69 20.6 82 82 Calm 30.01 1016 10 16 0.00 0.00
8:53 am 08:53 Sunny 78 25.6 68 20 71 71 VRB 3 6 30.02 1017 10 16 0.00 0.00
9:53 am 09:53 Sunny 82 27.8 70 21.1 67 67 Calm 30.04 1017 10 16 0.00 0.00
10:53 am 10:53 Sunny 85 29.4 72 22.2 65 65 VRB 5 7 30.04 1017 10 16 0.00 0.00
11:53 am 11:53 Sunny 88 31.1 72 22.2 59 59 NW 3 6 30.04 1017 10 16 0.00 0.00
12:53 pm 12:53 Sunny 89 31.7 72 22.2 57 57 W 6 9 30.02 1017 10 16 0.00 0.00
1:53 pm 13:53 Sunny 91 32.8 70 21.1 50 50 VRB 6 9 30.01 1016 10 16 0.00 0.00
2:53 pm 14:53 Sunny 92 33.3 71 21.7 51 51 NNW 5 7 29.99 1016 10 16 0.00 0.00
3:53 pm 15:53 Sunny 92 33.3 70 21.1 49 49 N 7 11 29.98 1015 10 16 0.00 0.00
4:53 pm 16:53 Mostly Sunny 93 33.9 71 21.7 49 49 NNW 6 9 29.97 1015 10 16 0.00 0.00
5:53 pm 17:53 Mostly Sunny 91 32.8 71 21.7 52 52 NW 6 9 29.96 1015 10 16 0.00 0.00
6:53 pm 18:53 Sunny 88 31.1 72 22.2 59 59 NNW 3 6 29.97 1015 10 16 0.00 0.00
7:53 pm 19:53 Sunny 86 30 73 22.8 65 65 Calm 29.97 1015 10 16 0.00 0.00
8:53 pm 20:53 Clear 83 28.3 73 22.8 72 72 E 5 7 29.97 1015 10 16 0.00 0.00
9:53 pm 21:53 Clear 80 26.7 74 23.3 82 82 Calm 30.00 1016 10 16 0.00 0.00
10:53 pm 22:53 Clear 78 25.6 74 23.3 87 87 Calm 30.00 1016 10 16 0.00 0.00
11:53 pm 23:53 Clear 76 24.4 73 22.8 91 91 Calm 29.99 1016 10 16 0.00 0.00

Powered by AerisWeather